默认 日期 大小 文件数 浏览量 最新下载 xml
judgment磁力链接相关资源由用户搜索指令自动获取,结果来源于网络,本站不存储任何资料,亦不承担任何责任,请于24小时内删除,搜索到1427个磁力,用时1ms。
    {"RARBG.txt": 30, "Judgment.Night.1993.BRRip.XviD.MP3-XVID.avi": 1306304392}
创建时间: 2018-12-22 03:44:10 大小:1.22 GB 文件数量:2 热度:3 最近下载:2021-06-17 16:24:50
    {"Punk.Rls.nfo": 5689, "HR.J.Punksample.mkv": 18973731, "Hellraiser.Judgment.2018.720p.MPEG4.H264.AC3.Hunsub.Punk.mkv": 1698471585}
创建时间: 2019-01-06 00:18:48 大小:1.6 GB 文件数量:3 热度:3 最近下载:2022-11-15 19:52:05
    {"sample.avi": 6420480, "Hellraiser.Judgment.2018.BRRip.XviD.AC3-EVO.avi": 1483953558, "Hellraiser.Judgment.2018.BRRip.XviD.AC3-EVO.nfo": 693}
创建时间: 2019-02-07 17:43:38 大小:1.39 GB 文件数量:3 热度:3 最近下载:2022-11-15 20:40:31
    ... Screenshot3.png": 808100}, "Terminator 2: Judgment Day [Info].txt": 3107, " ... Terminator 2: Judgment Day [Hash].sha1": 106, " ... Terminator 2: Judgment Day [Poster].jpg": 76910, " ... 47, "Terminator 2: Judgment Day [1991-HDDVDRip-H.264 ...
创建时间: 2019-02-19 18:34:09 大小:1.09 GB 文件数量:8 热度:3 最近下载:2021-06-17 16:25:58
    {"Subs": {"2_Eng.srt": 167565}, "RARBG.COM.mp4": 1016764, "RARBG.COM.txt": 34, "Judgment.at.Nuremberg.1961.720p.BluRay.H264.AAC-RARBG.mp4": 2326329653, "Judgment.at.Nuremberg.1961.720p.BluRay.H264.AAC-RARBG.nfo": 3939}
创建时间: 2019-02-20 04:23:03 大小:2.17 GB 文件数量:5 热度:3 最近下载:2024-11-30 13:12:02
    ... , "02 - Serenity.flac": 58524269, "07 - Judgment.flac": 67862152, "03 - Another Way ...
创建时间: 2019-02-22 00:25:26 大小:478.21 MB 文件数量:10 热度:3 最近下载:2021-06-17 16:25:58
    {"MP_ROOT": {"100MNV01": {"M4V00001.MP4": 948589395, "M4V00001.THM": 6315}}, "Readme.txt": 1110}
创建时间: 2019-03-02 06:12:40 大小:904.65 MB 文件数量:3 热度:3 最近下载:2021-06-17 16:25:58
    ... .BluRay.X264-AMIABLE.idx": 80404, "Judgment.Night.1993.REMASTERED.1080p.BluRay ... .txt": 30, "RARBG_DO_NOT_MIRROR.exe": 99, "Judgment.Night.1993.REMASTERED.1080p.BluRay ... .X264-AMIABLE.mkv": 11733217269, "judgment.night.1993.remastered.1080p.bluray ...
创建时间: 2019-03-17 14:46:38 大小:10.94 GB 文件数量:6 热度:3 最近下载:2021-06-17 16:25:58
    {"free audiobook version.txt": 596, "Judgment Before Nuremberg by Greg Dawson.epub": 1417337}
创建时间: 2019-03-17 22:26:03 大小:1.35 MB 文件数量:2 热度:3 最近下载:2024-11-30 12:22:01
    ... sub": 5849088, "hellraiser.judgment.2018.1080p.bluray.x264- ... 69}, "Proof": {"hellraiser.judgment.2018.1080p.bluray.x264-psychd ... 133385}, "Sample": {"hellraiser.judgment.2018.1080p.bluray.x264-psychd ... jpg": 230874, "hellraiser.judgment.2018.1080p.bluray.x264- ...
创建时间: 2019-03-19 16:09:18 大小:5.55 GB 文件数量:10 热度:3 最近下载:2021-06-17 16:25:58
    ... .mp3": 10809038, "04. Biohazard & Onyx - Judgment Night.mp3": 11235441, "11. Cypress ...
创建时间: 2019-04-29 05:48:16 大小:106.73 MB 文件数量:11 热度:3 最近下载:2021-06-17 16:25:58
    {"INFO.txt": 2560, "Judgment Night .1993.PL.BRRip.XviD-GR4PE,,.avi": 735128784, "ZAPRASZAM patriota123 -DEVIL-TORRENTS.PL..html": 585, "TANIE NIEZAWODNE KONTO SHELL - SPEEDSHELL.PL.jpg": 229004}
创建时间: 2019-05-19 22:43:03 大小:701.29 MB 文件数量:4 热度:3 最近下载:2021-06-17 16:25:58
    {"Octavian's Undoing (Sons of Judgment #1) by Airicka Phoenix.epub": 486843}
创建时间: 2019-06-03 15:50:26 大小:475.43 KB 文件数量:1 热度:3 最近下载:2022-04-09 06:13:16
    {"Judgment.Night.1993.720p.BluRay.X264-AMIABLE[PRiME].mkv": 4692233686, "Judgment.Night.1993.720p.BluRay.X264-AMIABLE[PRiME].srt": 81346}
创建时间: 2019-07-20 12:55:35 大小:4.37 GB 文件数量:2 热度:3 最近下载:2021-06-17 16:25:58
    {"judgment_soundtrack.zip": 35938517, "setup_judgment_apocalypse_survival_simulation_-_desert_edition_1.1.4155_(30212).exe": 827736, "setup_judgment_apocalypse_survival_simulation_-_desert_edition_1.1.4155_(30212)-1.bin": 1843364948}
创建时间: 2019-07-21 23:04:32 大小:1.75 GB 文件数量:3 热度:3 最近下载:2021-06-17 16:25:58
    ... . Brazen Serpent.mp3": 11844538, "02. Judgment Hammer.mp3": 18042872, "06. Kill ...
创建时间: 2019-07-22 01:07:03 大小:135.46 MB 文件数量:11 热度:3 最近下载:2021-06-17 16:25:58
    ... 下载.url": 145, "3DMGAME-Judgment.Apocalypse.Survival.Simulation.Desert.Edition ... -SiMPLEX.part1.rar": 1048576000, "3DMGAME-Judgment.Apocalypse.Survival.Simulation.Desert.Edition ...
创建时间: 2019-07-22 04:51:33 大小:1004.93 MB 文件数量:5 热度:3 最近下载:2021-06-17 16:25:58
    {"Hellraiser Judgment 2018 BRRip 1080p DD5.1 H265-d3g[N1C].mkv": 2000830719}
创建时间: 2019-07-23 16:22:18 大小:1.86 GB 文件数量:1 热度:3 最近下载:2021-06-17 16:25:58
    {"RARBG.txt": 30, "RARBG_DO_NOT_MIRROR.exe": 99, "American.Idol.S17E08.Showcase.Final.Judgment.1080p.NF.WEB-DL.DD+5.1.x264-AJP69.mkv": 5944683152}
创建时间: 2019-08-06 19:30:30 大小:5.54 GB 文件数量:3 热度:3 最近下载:2021-06-17 16:25:58
    {"RARBG.txt": 30, "Judgment.Night.1993.BRRip.XviD.MP3-RARBG.avi": 1295664472}
创建时间: 2019-11-23 03:37:47 大小:1.21 GB 文件数量:2 热度:3 最近下载:2023-12-25 05:33:03